EW6473 Weather Reports


Display with metric or nautical units.
time (UTC)temp
F
wind
direction
speed
MPH
gust
MPH
rain 1hr
in
rain 24hr
in
rain mn
in
humidity
%
barometer
mb
20210927031520 63 343 0.0 0.0 0.00 0.00 0.00 70 1017.5
20210927030022 64 343 0.0 0.0 0.00 0.00 0.00 69 1017.6
20210927024522 65 338 0.0 6.0 0.00 0.00 0.00 67 1017.5
20210927023022 66 343 0.0 0.0 0.00 0.00 0.00 65 1017.5
20210927021523 67 343 0.0 0.0 0.00 0.00 0.00 63 1017.3
20210927020024 68 343 0.0 0.0 0.00 0.00 0.00 61 1017.1
20210927014522 70 0 0.0 4.0 0.00 0.00 0.00 58 1017.0
20210927013022 71 315 0.0 3.0 0.00 0.00 0.00 55 1016.8
20210927011522 72 315 0.0 6.0 0.00 0.00 0.00 52 1016.6
20210927010022 73 248 0.0 3.0 0.00 0.00 0.00 50 1016.4
20210927004522 74 248 0.0 7.0 0.00 0.00 0.00 49 1016.5
20210927003022 75 248 0.0 7.0 0.00 0.00 0.00 47 1016.5
20210927001523 75 315 1.0 10.0 0.00 0.00 0.00 46 1016.5
20210927000021 76 338 1.0 6.0 0.00 0.00 0.00 44 1016.2
20210926234521 77 248 1.0 6.0 0.00 0.00 0.00 43 1016.4
20210926233021 76 338 1.0 12.0 0.00 0.00 0.00 43 1016.4
20210926231522 76 338 1.0 10.0 0.00 0.00 0.00 45 1016.2
20210926230021 76 338 2.0 8.0 0.00 0.00 0.00 45 1016.2
20210926224521 76 338 1.0 10.0 0.00 0.00 0.00 45 1016.4
20210926223021 77 338 1.0 10.0 0.00 0.00 0.00 43 1016.5
20210926221521 77 248 1.0 6.0 0.00 0.00 0.00 43 1016.6
20210926220021 77 270 1.0 7.0 0.00 0.00 0.00 44 1016.6
20210926214518 77 225 1.0 7.0 0.00 0.00 0.00 42 1016.6
20210926213018 76 248 1.0 6.0 0.00 0.00 0.00 47 1016.8
20210926211519 75 338 1.0 10.0 0.00 0.00 0.00 49 1017.1
20210926210026 75 225 1.0 8.0 0.00 0.00 0.00 49 1016.8
20210926204521 75 225 1.0 6.0 0.00 0.00 0.00 51 1017.1
20210926203021 74 338 1.0 8.0 0.00 0.00 0.00 53 1017.3
20210926201521 73 338 1.0 7.0 0.00 0.00 0.00 54 1017.4
20210926200021 73 338 1.0 8.0 0.00 0.00 0.00 53 1017.6
20210926194521 72 248 2.0 7.0 0.00 0.00 0.00 56 1017.7
20210926193021 71 315 1.0 6.0 0.00 0.00 0.00 58 1017.9
20210926191521 70 338 1.0 6.0 0.00 0.00 0.00 59 1017.9
20210926190021 69 293 1.0 8.0 0.00 0.00 0.00 61 1018.1
20210926184522 69 338 1.0 8.0 0.00 0.00 0.00 64 1018.1
20210926183021 68 293 0.0 5.0 0.00 0.00 0.00 67 1018.1
20210926181521 66 338 1.0 7.0 0.00 0.00 0.00 71 1018.3
20210926180021 65 315 1.0 6.0 0.00 0.00 0.00 74 1018.1
20210926174521 64 315 0.0 5.0 0.00 0.00 0.00 78 1018.1
20210926173020 62 315 1.0 5.0 0.00 0.00 0.00 81 1018.1
20210926171521 61 315 0.0 6.0 0.00 0.00 0.00 84 1018.5
20210926170021 61 293 1.0 6.0 0.00 0.00 0.00 85 1018.5
20210926164521 60 270 0.0 5.0 0.00 0.00 0.00 87 1018.5
20210926163021 60 270 0.0 5.0 0.00 0.00 0.00 88 1018.5
20210926161520 59 315 0.0 5.0 0.00 0.00 0.00 88 1018.7
20210926160021 59 326 0.0 0.0 0.00 0.00 0.00 89 1018.4
20210926154521 58 326 0.0 0.0 0.00 0.00 0.00 88 1018.3
20210926153022 58 326 0.0 0.0 0.00 0.00 0.00 88 1018.3
20210926151522 58 326 0.0 0.0 0.00 0.00 0.00 88 1018.4
20210926150020 58 315 0.0 3.0 0.00 0.00 0.00 88 1018.2
20210926144520 58 326 0.0 0.0 0.00 0.00 0.00 88 1018.3
20210926143021 58 326 0.0 0.0 0.00 0.00 0.00 87 1018.2
20210926141521 58 326 0.0 0.0 0.00 0.00 0.00 87 1018.1
20210926140020 58 326 0.0 0.0 0.00 0.00 0.00 87 1017.9
20210926134520 58 326 0.0 0.0 0.00 0.00 0.00 87 1017.8
20210926133020 58 326 0.0 0.0 0.00 0.00 0.00 86 1017.7
20210926131520 58 326 0.0 0.0 0.00 0.00 0.00 85 1017.8
20210926130020 57 326 0.0 0.0 0.00 0.00 0.00 84 1017.3
20210926124520 58 326 0.0 0.0 0.00 0.00 0.00 84 1017.3
20210926123020 59 326 0.0 0.0 0.00 0.00 0.00 84 1017.3
20210926121520 59 326 0.0 0.0 0.00 0.00 0.00 84 1017.4
20210926120021 60 315 0.0 3.0 0.00 0.00 0.00 84 1017.2
20210926114520 60 326 0.0 0.0 0.00 0.00 0.00 84 1017.1
20210926113020 60 326 0.0 0.0 0.00 0.00 0.00 83 1017.4
20210926111520 60 326 0.0 0.0 0.00 0.00 0.00 83 1017.3
20210926110021 60 315 0.0 1.0 0.00 0.00 0.00 82 1017.4
20210926104522 59 315 0.0 1.0 0.00 0.00 0.00 81 1017.2
20210926103022 59 326 0.0 0.0 0.00 0.00 0.00 81 1017.2
20210926101521 60 326 0.0 0.0 0.00 0.00 0.00 81 1017.3
20210926100022 60 326 0.0 0.0 0.00 0.00 0.00 81 1017.3
20210926094522 61 326 0.0 0.0 0.00 0.00 0.00 80 1016.9
20210926093022 61 326 0.0 0.0 0.00 0.00 0.00 80 1017.0
20210926091524 61 326 0.0 0.0 0.00 0.00 0.00 80 1017.3
20210926090022 61 326 0.0 0.0 0.00 0.00 0.00 79 1017.2
20210926084521 60 326 0.0 0.0 0.00 0.00 0.00 79 1017.4
20210926083021 60 326 0.0 0.0 0.00 0.00 0.00 78 1017.5
20210926081521 60 326 0.0 0.0 0.00 0.00 0.00 78 1017.3
20210926080021 60 326 0.0 0.0 0.00 0.00 0.00 78 1017.3
20210926074522 60 326 0.0 0.0 0.00 0.00 0.00 77 1017.5
20210926073022 60 0 0.0 0.0 0.00 0.00 0.00 76 1017.5
20210926071519 61 326 0.0 0.0 0.00 0.00 0.00 75 1017.4
20210926070026 61 326 0.0 0.0 0.00 0.00 0.00 75 1017.4
20210926064521 61 326 0.0 0.0 0.00 0.00 0.00 74 1017.5
20210926063021 61 326 0.0 0.0 0.00 0.00 0.00 74 1017.3
20210926061521 62 326 0.0 0.0 0.00 0.00 0.00 72 1017.5
20210926060020 62 326 0.0 0.0 0.00 0.00 0.00 72 1017.5
20210926054523 63 326 0.0 0.0 0.00 0.00 0.00 71 1017.4
20210926053020 63 326 0.0 0.0 0.00 0.00 0.00 70 1017.3
20210926051520 64 326 0.0 0.0 0.00 0.00 0.00 69 1017.2
20210926050021 64 326 0.0 0.0 0.00 0.00 0.00 67 1017.2
20210926044520 65 326 0.0 0.0 0.00 0.00 0.00 66 1017.2
20210926043020 66 326 0.0 0.0 0.00 0.00 0.00 65 1017.2
20210926041521 67 326 0.0 0.0 0.00 0.00 0.00 64 1017.0
20210926040021 68 326 0.0 0.0 0.00 0.00 0.00 63 1017.0
20210926034520 68 326 0.0 0.0 0.00 0.00 0.00 61 1016.7
20210926033020 69 326 0.0 0.0 0.00 0.00 0.00 60 1016.6